Time,TemperatureF,DewpointF,PressureIn,WindDirection,WindDirectionDegrees,WindSpeedMPH,WindSpeedGustMPH,Humidity,HourlyPrecipIn,Conditions,Clouds,dailyrainin,SoftwareType,DateUTC
2013-07-30 00:03:00,59.0,55.0,30.15,North,360,0.0,0.0,88,0.00,,,0.00,,2013-07-30 04:03:00,
2013-07-30 00:23:00,58.0,54.0,30.15,North,360,0.0,0.0,88,0.00,,,0.00,,2013-07-30 04:23:00,
2013-07-30 00:33:00,58.0,54.0,30.15,North,360,0.0,0.0,88,0.00,,,0.00,,2013-07-30 04:33:00,
2013-07-30 00:53:00,57.0,54.0,30.15,North,360,0.0,0.0,89,0.00,,,0.00,,2013-07-30 04:53:00,
2013-07-30 01:03:00,57.0,54.0,30.16,North,360,0.0,0.0,91,0.00,,,0.00,,2013-07-30 05:03:00,
2013-07-30 01:13:00,56.0,53.0,30.16,North,360,0.0,0.0,90,0.00,,,0.00,,2013-07-30 05:13:00,
2013-07-30 01:33:00,56.0,53.0,30.16,North,360,0.0,0.0,91,0.00,,,0.00,,2013-07-30 05:33:00,
2013-07-30 01:45:00,56.0,53.0,30.16,North,360,0.0,0.0,91,0.00,,,0.00,,2013-07-30 05:45:00,
2013-07-30 02:03:00,56.0,54.0,30.16,North,360,0.0,0.0,92,0.00,,,0.00,,2013-07-30 06:03:00,
2013-07-30 02:13:00,55.0,53.0,30.15,North,360,0.0,0.0,92,0.00,,,0.00,,2013-07-30 06:13:00,
2013-07-30 02:23:00,55.0,53.0,30.15,North,360,0.0,0.0,92,0.00,,,0.00,,2013-07-30 06:23:00,
2013-07-30 02:33:00,55.0,53.0,30.15,North,360,0.0,0.0,92,0.00,,,0.00,,2013-07-30 06:33:00,
2013-07-30 02:43:00,55.0,53.0,30.15,North,360,0.0,0.0,92,0.00,,,0.00,,2013-07-30 06:43:00,
2013-07-30 02:53:00,55.0,53.0,30.16,North,360,0.0,0.0,92,0.00,,,0.00,,2013-07-30 06:53:00,
2013-07-30 03:03:00,55.0,53.0,30.16,North,360,0.0,0.0,92,0.00,,,0.00,,2013-07-30 07:03:00,
2013-07-30 03:13:00,54.0,52.0,30.16,North,360,0.0,0.0,92,0.00,,,0.00,,2013-07-30 07:13:00,
2013-07-30 03:23:00,54.0,52.0,30.16,North,360,0.0,0.0,92,0.00,,,0.00,,2013-07-30 07:23:00,
2013-07-30 03:33:00,54.0,52.0,30.16,North,360,0.0,0.0,92,0.00,,,0.00,,2013-07-30 07:33:00,
2013-07-30 03:43:00,54.0,52.0,30.16,North,360,0.0,0.0,94,0.00,,,0.00,,2013-07-30 07:43:00,
2013-07-30 03:53:00,54.0,52.0,30.16,North,360,0.0,0.0,94,0.00,,,0.00,,2013-07-30 07:53:00,
2013-07-30 04:03:00,54.0,52.0,30.16,North,360,0.0,0.0,94,0.00,,,0.00,,2013-07-30 08:03:00,
2013-07-30 04:13:00,54.0,52.0,30.16,North,360,0.0,0.0,93,0.00,,,0.00,,2013-07-30 08:13:00,
2013-07-30 04:23:00,54.0,52.0,30.16,North,360,0.0,0.0,93,0.00,,,0.00,,2013-07-30 08:23:00,
2013-07-30 04:33:00,54.0,52.0,30.16,North,360,0.0,0.0,94,0.00,,,0.00,,2013-07-30 08:33:00,
2013-07-30 04:43:00,53.0,51.0,30.16,North,360,0.0,0.0,93,0.00,,,0.00,,2013-07-30 08:43:00,
2013-07-30 04:53:00,53.0,51.0,30.16,North,360,0.0,0.0,94,0.00,,,0.00,,2013-07-30 08:53:00,
2013-07-30 05:03:00,53.0,51.0,30.16,North,360,0.0,0.0,94,0.00,,,0.00,,2013-07-30 09:03:00,
2013-07-30 05:13:00,53.0,51.0,30.16,North,360,0.0,0.0,94,0.00,,,0.00,,2013-07-30 09:13:00,
2013-07-30 05:23:00,53.0,51.0,30.16,North,360,0.0,0.0,94,0.00,,,0.00,,2013-07-30 09:23:00,
2013-07-30 05:33:00,53.0,51.0,30.16,North,360,0.0,0.0,94,0.00,,,0.00,,2013-07-30 09:33:00,
2013-07-30 05:43:00,53.0,51.0,30.16,North,360,0.0,0.0,94,0.00,,,0.00,,2013-07-30 09:43:00,
2013-07-30 05:53:00,53.0,51.0,30.16,North,360,0.0,0.0,94,0.00,,,0.00,,2013-07-30 09:53:00,
2013-07-30 06:03:00,52.0,50.0,30.16,North,360,0.0,0.0,94,0.00,,,0.00,,2013-07-30 10:03:00,
2013-07-30 06:23:00,52.0,50.0,30.16,North,360,0.0,0.0,94,0.00,,,0.00,,2013-07-30 10:23:00,
2013-07-30 06:32:00,52.0,51.0,30.16,North,360,0.0,0.0,95,0.00,,,0.00,,2013-07-30 10:32:00,
2013-07-30 07:02:00,52.0,51.0,30.16,North,360,0.0,0.0,95,0.00,,,0.00,,2013-07-30 11:02:00,
2013-07-30 07:22:00,52.0,51.0,30.16,North,360,0.0,0.0,95,0.00,,,0.00,,2013-07-30 11:22:00,
2013-07-30 07:33:00,52.0,51.0,30.17,North,360,0.0,0.0,95,0.00,,,0.00,,2013-07-30 11:33:00,
2013-07-30 08:33:00,58.0,57.0,30.18,North,5,0.0,0.0,97,0.00,,,0.00,,2013-07-30 12:33:00,
2013-07-30 08:53:00,60.0,59.0,30.18,East,86,0.0,0.0,96,0.00,,,0.00,,2013-07-30 12:53:00,
2013-07-30 09:22:00,65.0,61.0,30.18,ESE,116,0.0,0.0,86,0.00,,,0.00,,2013-07-30 13:22:00,
2013-07-30 09:43:00,67.0,61.0,30.18,SSW,199,0.0,4.0,81,0.00,,,0.00,,2013-07-30 13:43:00,
2013-07-30 10:12:00,68.0,61.0,30.17,SE,124,0.0,3.0,79,0.00,,,0.00,,2013-07-30 14:12:00,
2013-07-30 10:22:00,70.0,62.0,30.17,ESE,123,0.0,2.0,75,0.00,,,0.00,,2013-07-30 14:22:00,
2013-07-30 10:53:00,73.0,62.0,30.16,SSE,156,0.0,3.0,68,0.00,,,0.00,,2013-07-30 14:53:00,
2013-07-30 11:02:00,73.0,62.0,30.17,SSW,209,1.0,4.0,69,0.00,,,0.00,,2013-07-30 15:02:00,
2013-07-30 11:23:00,74.0,63.0,30.16,SE,126,0.0,4.0,68,0.00,,,0.00,,2013-07-30 15:23:00,
2013-07-30 11:33:00,74.0,61.0,30.16,South,182,1.0,4.0,64,0.00,,,0.00,,2013-07-30 15:33:00,
2013-07-30 11:43:00,75.0,62.0,30.16,SSW,199,1.0,4.0,64,0.00,,,0.00,,2013-07-30 15:43:00,
2013-07-30 11:52:00,75.0,62.0,30.16,SSW,199,1.0,4.0,64,0.00,,,0.00,,2013-07-30 15:52:00,
2013-07-30 12:02:00,77.0,61.0,30.15,ESE,121,0.0,4.0,58,0.00,,,0.00,,2013-07-30 16:02:00,
2013-07-30 12:12:00,77.0,61.0,30.15,ESE,121,0.0,4.0,58,0.00,,,0.00,,2013-07-30 16:12:00,
2013-07-30 12:23:00,77.0,61.0,30.15,ESE,121,0.0,4.0,58,0.00,,,0.00,,2013-07-30 16:23:00,
2013-07-30 12:44:00,77.0,61.0,30.15,SSW,203,2.0,5.0,58,0.00,,,0.00,,2013-07-30 16:44:00,
2013-07-30 13:02:00,77.0,61.0,30.15,SW,221,0.0,7.0,57,0.00,,,0.00,,2013-07-30 17:02:00,
2013-07-30 13:22:00,76.0,62.0,30.15,SE,136,0.0,4.0,61,0.00,,,0.00,,2013-07-30 17:22:00,
2013-07-30 13:53:00,77.0,61.0,30.14,SW,223,1.0,4.0,57,0.00,,,0.00,,2013-07-30 17:53:00,
2013-07-30 14:03:00,78.0,61.0,30.13,SW,234,2.0,4.0,56,0.00,,,0.00,,2013-07-30 18:03:00,
2013-07-30 14:12:00,78.0,61.0,30.13,SW,234,2.0,4.0,56,0.00,,,0.00,,2013-07-30 18:12:00,
2013-07-30 14:23:00,79.0,61.0,30.13,SW,232,2.0,4.0,55,0.00,,,0.00,,2013-07-30 18:23:00,
2013-07-30 14:43:00,79.0,62.0,30.12,ESE,123,0.0,4.0,57,0.00,,,0.00,,2013-07-30 18:43:00,
2013-07-30 14:52:00,77.0,59.0,30.12,SSW,200,0.0,4.0,54,0.00,,,0.00,,2013-07-30 18:52:00,
2013-07-30 15:03:00,76.0,61.0,30.12,ESE,119,0.0,3.0,59,0.00,,,0.00,,2013-07-30 19:03:00,
2013-07-30 15:12:00,76.0,61.0,30.12,ESE,119,0.0,3.0,59,0.00,,,0.00,,2013-07-30 19:12:00,
2013-07-30 15:23:00,76.0,61.0,30.12,SE,132,0.0,3.0,59,0.00,,,0.00,,2013-07-30 19:23:00,
2013-07-30 15:44:00,76.0,60.0,30.11,SW,228,1.0,3.0,57,0.00,,,0.00,,2013-07-30 19:44:00,
2013-07-30 15:52:00,76.0,61.0,30.11,ESE,105,0.0,3.0,60,0.00,,,0.00,,2013-07-30 19:52:00,
2013-07-30 16:02:00,76.0,60.0,30.11,SW,234,1.0,4.0,58,0.00,,,0.00,,2013-07-30 20:02:00,
2013-07-30 16:12:00,76.0,60.0,30.11,SW,234,1.0,4.0,58,0.00,,,0.00,,2013-07-30 20:12:00,
2013-07-30 16:22:00,76.0,61.0,30.10,SW,223,0.0,4.0,59,0.00,,,0.00,,2013-07-30 20:22:00,
2013-07-30 16:43:00,76.0,62.0,30.09,SSE,151,0.0,4.0,62,0.00,,,0.00,,2013-07-30 20:43:00,
2013-07-30 16:52:00,76.0,62.0,30.09,SSE,151,0.0,4.0,62,0.00,,,0.00,,2013-07-30 20:52:00,
2013-07-30 17:22:00,76.0,63.0,30.09,East,98,1.0,5.0,64,0.00,,,0.00,,2013-07-30 21:22:00,
2013-07-30 17:32:00,76.0,62.0,30.09,SSW,208,0.0,3.0,63,0.00,,,0.00,,2013-07-30 21:32:00,
2013-07-30 17:52:00,76.0,62.0,30.09,SW,215,1.0,4.0,62,0.00,,,0.00,,2013-07-30 21:52:00,
2013-07-30 18:02:00,76.0,62.0,30.09,SW,215,1.0,4.0,62,0.00,,,0.00,,2013-07-30 22:02:00,
2013-07-30 18:22:00,76.0,62.0,30.09,South,178,0.0,2.0,62,0.00,,,0.00,,2013-07-30 22:22:00,
2013-07-30 18:32:00,76.0,62.0,30.09,South,178,0.0,2.0,62,0.00,,,0.00,,2013-07-30 22:32:00,
2013-07-30 18:52:00,75.0,63.0,30.08,SE,128,0.0,2.0,66,0.00,,,0.00,,2013-07-30 22:52:00,
2013-07-30 19:02:00,75.0,63.0,30.08,SSW,200,0.0,2.0,67,0.00,,,0.00,,2013-07-30 23:02:00,
2013-07-30 19:22:00,75.0,62.0,30.08,SSW,200,0.0,2.0,65,0.00,,,0.00,,2013-07-30 23:22:00,
2013-07-30 19:32:00,75.0,63.0,30.08,SSW,200,0.0,1.0,66,0.00,,,0.00,,2013-07-30 23:32:00,
2013-07-30 19:42:00,75.0,63.0,30.08,SSW,200,0.0,1.0,67,0.00,,,0.00,,2013-07-30 23:42:00,
2013-07-30 19:53:00,75.0,63.0,30.08,SSW,200,0.0,1.0,67,0.00,,,0.00,,2013-07-30 23:53:00,
2013-07-30 20:02:00,74.0,63.0,30.08,SSW,200,0.0,1.0,68,0.00,,,0.00,,2013-07-31 00:02:00,
2013-07-30 20:12:00,74.0,65.0,30.08,SSW,200,0.0,0.0,73,0.00,,,0.00,,2013-07-31 00:12:00,
2013-07-30 20:22:00,74.0,65.0,30.08,SSW,200,0.0,0.0,73,0.00,,,0.00,,2013-07-31 00:22:00,
2013-07-30 20:32:00,73.0,64.0,30.08,SSW,200,0.0,0.0,74,0.00,,,0.00,,2013-07-31 00:32:00,
2013-07-30 20:43:00,73.0,65.0,30.08,SSW,200,0.0,0.0,76,0.00,,,0.00,,2013-07-31 00:43:00,
2013-07-30 20:53:00,73.0,65.0,30.08,SSW,200,0.0,0.0,76,0.00,,,0.00,,2013-07-31 00:53:00,
2013-07-30 21:02:00,72.0,64.0,30.08,SSW,200,0.0,1.0,75,0.00,,,0.00,,2013-07-31 01:02:00,
2013-07-30 21:12:00,72.0,64.0,30.08,SSW,200,0.0,1.0,75,0.00,,,0.00,,2013-07-31 01:12:00,
2013-07-30 21:22:00,72.0,64.0,30.08,SSW,200,0.0,1.0,76,0.00,,,0.00,,2013-07-31 01:22:00,
2013-07-30 21:32:00,72.0,64.0,30.08,SSW,200,0.0,1.0,76,0.00,,,0.00,,2013-07-31 01:32:00,
2013-07-30 21:42:00,71.0,63.0,30.07,SSW,200,0.0,1.0,77,0.00,,,0.00,,2013-07-31 01:42:00,
2013-07-30 21:52:00,71.0,64.0,30.07,SSW,200,0.0,0.0,79,0.00,,,0.00,,2013-07-31 01:52:00,
2013-07-30 22:02:00,71.0,64.0,30.07,SSW,200,0.0,0.0,79,0.00,,,0.00,,2013-07-31 02:02:00,
2013-07-30 22:12:00,70.0,64.0,30.07,SSW,200,0.0,0.0,81,0.00,,,0.00,,2013-07-31 02:12:00,
2013-07-30 22:32:00,70.0,64.0,30.07,SSW,200,0.0,0.0,82,0.00,,,0.00,,2013-07-31 02:32:00,
2013-07-30 22:43:00,70.0,64.0,30.07,SSW,200,0.0,0.0,82,0.00,,,0.00,,2013-07-31 02:43:00,
2013-07-30 22:52:00,69.0,64.0,30.07,SSW,200,0.0,0.0,83,0.00,,,0.00,,2013-07-31 02:52:00,
2013-07-30 23:02:00,68.0,64.0,30.07,SSW,200,0.0,0.0,86,0.00,,,0.00,,2013-07-31 03:02:00,
2013-07-30 23:12:00,68.0,64.0,30.07,SSW,200,0.0,0.0,86,0.00,,,0.00,,2013-07-31 03:12:00,
2013-07-30 23:22:00,68.0,64.0,30.07,SSW,200,0.0,0.0,86,0.00,,,0.00,,2013-07-31 03:22:00,
2013-07-30 23:42:00,68.0,64.0,30.07,SSW,200,0.0,0.0,87,0.00,,,0.00,,2013-07-31 03:42:00,
2013-07-30 23:52:00,68.0,64.0,30.07,SSW,200,0.0,0.0,87,0.00,,,0.00,,2013-07-31 03:52:00,